Volk, WI

10:12 AM CDT on September 15, 2019 (GMT -0500)
Volk

Weather History for KVOK - August, 2019

Change the Weather History Date:

Sunday, August 18, 2019

  Actual Average Record
Temperature  
Mean Temperature 66 °F -  
Max Temperature 77 °F 75 °F 91 °F (2003)
Min Temperature 55 °F 60 °F 37 °F (2012)
Cooling Degree Days 1    
Growing Degree Days 16 (Base 50)    
Moisture  
Dew Point 64 °F    
Average Humidity 93    
Maximum Humidity 100    
Minimum Humidity 67    
Precipitation  
Precipitation 0.00 in - - ()
Sea Level Pressure  
Sea Level Pressure 29.78 in    
Wind  
Wind Speed 10 mph (SW)    
Max Wind Speed 24 mph    
Max Gust Speed 32 mph    
Visibility 9 miles    
Events      
Averages and records for this station are not official NWS values.
T = Trace of Precipitation, MM = Missing Value Source: NWS Daily Summary

Daily Weather History Graph

Daily Weather History Graph

Search for Another Location

Airport or City:

Astronomy

Aug. 18, 2019 Rise Set
Actual Time 6:08 AM CDT 8:00 PM CDT
Civil Twilight 5:37 AM CDT 8:31 PM CDT
Nautical Twilight 4:59 AM CDT 9:09 PM CDT
Astronomical Twilight 4:18 AM CDT 9:50 PM CDT
Moon 9:50 PM CDT (8/18) 8:57 AM CDT (8/18)
Length of Visible Light 14h 54m
Length of Day
13h 52m
Waning Gibbous, 91% of the Moon is Illuminated
Aug 18
Waning Gibbous
Aug 23
Last Quarter
Aug 30
New
Sep 5
First Quarter
Sep 13
Full

Hourly Weather History & Observations

Time (CDT) Temp. Dew Point Humidity Pressure Visibility Wind Dir Wind Speed Gust Speed Precip Events Conditions
12:56 AM 64.8 °F 64.8 °F 100% 29.80 in 10.0 mi SE 6.9 mph - N/A   Clear
1:56 AM 65.1 °F 65.1 °F 100% 29.82 in 10.0 mi SW 4.6 mph - N/A   Mostly Cloudy
2:56 AM 66.2 °F 66.2 °F 100% 29.75 in 10.0 mi East 5.8 mph - N/A   Scattered Clouds
3:56 AM 66.4 °F 66.4 °F 100% 29.72 in 10.0 mi East 10.4 mph - N/A   Partly Cloudy
4:30 AM 66.2 °F 66.2 °F 100% 29.73 in 10.0 mi WNW 4.6 mph - N/A   Scattered Clouds
4:45 AM 66.2 °F 66.2 °F 100% 29.73 in 8.0 mi Calm Calm - N/A   Mostly Cloudy
4:56 AM 66.2 °F 66.2 °F 100% 29.72 in 10.0 mi Calm Calm - N/A   Mostly Cloudy
5:11 AM 66.2 °F 66.2 °F 100% 29.71 in 7.0 mi Calm Calm - N/A   Mostly Cloudy
5:50 AM 66.2 °F 66.2 °F 100% 29.64 in 5.0 mi ESE 17.3 mph - N/A   Overcast
5:56 AM 66.4 °F 66.4 °F 100% 29.61 in 7.0 mi ESE 21.9 mph - N/A   Mostly Cloudy
6:11 AM 66.2 °F 66.2 °F 100% 29.61 in 10.0 mi SE 16.1 mph 26.5 mph N/A   Scattered Clouds
6:26 AM 68.0 °F 68.0 °F 100% 29.64 in 10.0 mi SSE 10.4 mph 21.9 mph N/A   Mostly Cloudy
6:41 AM 68.0 °F 68.0 °F 100% 29.66 in 10.0 mi South 9.2 mph - N/A   Overcast
6:56 AM 67.8 °F 67.8 °F 100% 29.67 in 10.0 mi South 15.0 mph - N/A   Mostly Cloudy
7:11 AM 68.0 °F 68.0 °F 100% 29.67 in 10.0 mi South 17.3 mph 26.5 mph N/A   Scattered Clouds
7:26 AM 68.0 °F 68.0 °F 100% 29.67 in 10.0 mi South 23.0 mph 29.9 mph N/A   Mostly Cloudy
7:27 AM 68.0 °F 68.0 °F 100% 29.67 in 10.0 mi South 23.0 mph 29.9 mph N/A   Mostly Cloudy
7:42 AM 68.0 °F 68.0 °F 100% 29.64 in 10.0 mi South 23.0 mph 32.2 mph N/A   Scattered Clouds
7:56 AM 68.0 °F 68.0 °F 100% 29.66 in 10.0 mi South 24.2 mph 31.1 mph N/A   Mostly Cloudy
8:56 AM 68.0 °F 64.4 °F 88% 29.73 in 10.0 mi SW 15.0 mph 27.6 mph N/A   Mostly Cloudy
9:56 AM 68.0 °F 64.4 °F 88% 29.76 in 10.0 mi West 20.7 mph 25.3 mph N/A   Mostly Cloudy
10:56 AM 68.0 °F 64.4 °F 88% 29.75 in 10.0 mi West 16.1 mph 31.1 mph N/A   Overcast
11:41 AM 68.0 °F 64.4 °F 88% 29.77 in 10.0 mi West 20.7 mph 31.1 mph N/A   Overcast
11:56 AM 69.8 °F 64.4 °F 83% 29.77 in 10.0 mi West 18.4 mph 26.5 mph N/A   Overcast
12:42 PM 69.8 °F 64.4 °F 83% 29.80 in 10.0 mi West 17.3 mph 24.2 mph N/A   Mostly Cloudy
12:56 PM 71.6 °F 64.4 °F 78% 29.80 in 10.0 mi West 17.3 mph 27.6 mph N/A   Mostly Cloudy
1:56 PM 73.4 °F 64.4 °F 73% 29.81 in 10.0 mi West 12.7 mph 24.2 mph N/A   Mostly Cloudy
2:56 PM 75.2 °F 64.4 °F 69% 29.83 in 10.0 mi WNW 18.4 mph 24.2 mph N/A   Mostly Cloudy
3:56 PM 75.4 °F 65.3 °F 71% 29.83 in 10.0 mi WNW 16.1 mph - N/A   Partly Cloudy
4:56 PM 77.0 °F 65.1 °F 67% 29.82 in 10.0 mi WNW 11.5 mph - N/A   Clear
5:56 PM 74.3 °F 64.2 °F 71% 29.83 in 10.0 mi West 6.9 mph - N/A   Clear
6:56 PM 73.6 °F 62.4 °F 68% 29.84 in 10.0 mi West 9.2 mph - N/A   Clear
7:56 PM 67.3 °F 62.2 °F 84% 29.85 in 10.0 mi WSW 6.9 mph - N/A   Clear
8:56 PM 63.9 °F 63.0 °F 97% 29.88 in 10.0 mi West 4.6 mph - N/A   Clear
9:56 PM 59.9 °F 59.9 °F 100% 29.90 in 10.0 mi Calm Calm - N/A   Clear
10:56 PM 57.6 °F 57.6 °F 100% 29.92 in 8.0 mi West 3.5 mph - N/A   Clear
11:16 PM 55.4 °F 55.4 °F 100% 29.93 in 0.8 mi Calm Calm - N/A   Clear
11:21 PM 55.4 °F 55.4 °F 100% 29.93 in 0.6 mi Calm Calm - N/A   Clear
11:26 PM 55.4 °F 55.4 °F 100% 29.93 in 0.8 mi Calm Calm - N/A   Clear
11:31 PM 57.2 °F 57.2 °F 100% 29.93 in 1.1 mi West 3.5 mph - N/A   Clear
11:36 PM 57.2 °F 57.2 °F 100% 29.93 in 4.0 mi West 3.5 mph - N/A   Clear
11:56 PM 56.7 °F 56.7 °F 100% 29.93 in 10.0 mi West 4.6 mph - N/A   Clear